Flag for Germany Weather past 2 weeks in Wolfenbüttel, Lower Saxony, Germany

Now
45 °F

Sunny.


Feels Like: 39 °F
Forecast: 35 / 47 °F
Wind: 12 mph from Southwest

Location: Braunschweig

Current Time: Feb 28, 2015 at 5:11:56 PM

Latest Report: Feb 28, 2015 at 4:20 PM


Visibility: 10 mi

Pressure: 30.04 "Hg

Humidity: 49%

Dew point: 27 °F

Location of WolfenbüttelLocation

Historic Weather in Wolfenbüttel — Graph

°F

Wolfenbüttel temperature yesterday

Maximum temperature yesterday: 41 °F (at 2:20 PM)
Minimum temperature yesterday: 32 °F (at 6:50 AM)
Average temperature yesterday: 39 °F

Past Weeks' High & Low Weather Summary

 TemperatureHumidityPressure
High52 °F (Feb 26, 3:20 PM)100% (Feb 13, 4:50 PM)30.74 "Hg (Feb 13, 4:50 PM)
Low27 °F (Feb 14, 7:50 AM)47% (Feb 26, 3:20 PM)29.33 "Hg (Feb 21, 9:50 AM)
Average39 °F81%29.99 "Hg
* Reported Feb 13 3:20 PM — Feb 28 3:50 PM, Wolfenbüttel, Weather by CustomWeather, © 2015

Note: Actual official high and low records may vary slightly from our data, if they occured in-between our weather recording intervals... More about our weather records

Advertising

Wolfenbüttel weather history for previous 24 hours

 ConditionsComfort  
Time TempWeatherWind HumidityBarometerVisibility
3:50 PM
Sat, Feb 28
46 °FPassing clouds.9 mph50%30.04 "HgN/A
3:20 PM45 °FSunny.10 mph53%30.04 "Hg10 mi
2:50 PM45 °FPassing clouds.12 mph53%30.04 "HgN/A
2:20 PM46 °FPassing clouds.13 mph53%30.07 "HgN/A
1:50 PM45 °FPassing clouds.10 mph61%30.07 "HgN/A
1:20 PM45 °FPassing clouds.10 mph61%30.07 "HgN/A
12:50 PM43 °FPassing clouds.10 mph71%30.09 "HgN/A
12:20 PM41 °FScattered clouds.10 mph76%30.09 "HgN/A
11:50 AM41 °FScattered clouds.9 mph81%30.12 "HgN/A
11:20 AM39 °FScattered clouds.9 mph87%30.12 "HgN/A
10:50 AM41 °FPassing clouds.10 mph81%30.12 "HgN/A
10:20 AM39 °FPassing clouds.9 mph93%30.12 "HgN/A
9:50 AM37 °FPassing clouds.8 mph100%30.12 "HgN/A
9:20 AM36 °FPassing clouds.9 mph100%30.12 "HgN/A
8:50 AM34 °FScattered clouds.5 mph100%30.12 "HgN/A
8:20 AM34 °FPartly sunny.6 mph100%30.12 "HgN/A
7:50 AM32 °FScattered clouds.5 mph100%30.12 "HgN/A
9:50 PM
Fri, Feb 27
37 °FClear.8 mph100%30.07 "Hg10 mi
9:20 PM39 °FOvercast.8 mph100%30.04 "HgN/A
8:50 PM39 °FMostly cloudy.8 mph100%30.04 "HgN/A
8:20 PM39 °FMostly cloudy.7 mph100%30.01 "HgN/A
7:50 PM39 °FOvercast.5 mph100%30.01 "HgN/A
7:20 PM39 °FMostly cloudy.2 mph100%30.01 "HgN/A
6:50 PM39 °FLight rain. Mostly cloudy.9 mph100%30.01 "Hg5 mi
6:20 PM39 °FLight rain. Mostly cloudy.5 mph100%29.98 "Hg5 mi
5:50 PM39 °FLight rain. Cloudy.5 mph100%29.98 "Hg6 mi
5:20 PM41 °FLight rain. Mostly cloudy.8 mph100%29.95 "Hg6 mi
Weather by CustomWeather, © 2015

See weather overviewHow to use our weather pages